Wind_Speed
30 30 30 29 30 30 30 30 30 30 30 29 28 28 29 29 30 30 30 29 29 30 31 33 35 38 42 47 50 52 52 53 53 52 49 48 48 50 52 53 53 53 52 51 49 47 46 47 47 47 46 45 42 41 43 45 45 44 43 41 36 34 32
32 32 32 32 31 31 30 30 31 31 31 31 30 29 29 30 30 30 31 30 30 30 31 32 34 36 39 43 47 51 53 54 54 53 51 49 49 50 51 52 53 53 54 54 53 51 50 49 49 49 49 48 46 43 44 45 46 45 45 42 39 36 34
32 33 33 33 33 32 31 31 31 32 32 32 31 31 30 30 31 31 31 31 31 31 31 32 33 34 37 40 44 47 51 54 56 56 54 51 50 49 50 51 52 53 54 55 56 55 53 52 51 51 50 50 49 48 47 47 48 48 47 46 44 41 37
34 34 34 34 34 34 33 32 32 33 34 34 33 33 32 32 32 32 32 32 33 33 33 33 33 34 35 38 41 44 47 50 54 57 57 55 52 50 50 50 51 52 54 56 57 57 56 55 54 53 52 52 52 52 51 50 50 49 49 49 48 46 42
36 35 35 34 34 34 34 33 33 34 35 35 35 35 35 34 34 34 34 34 34 34 34 34 34 35 35 37 39 42 44 47 50 53 56 56 54 52 50 51 52 53 53 55 57 57 57 57 57 57 56 55 54 54 54 53 52 51 51 51 51 49 47
39 38 37 36 35 35 34 34 34 35 35 36 36 36 36 36 36 36 36 35 36 36 36 36 36 36 36 37 38 40 43 45 47 50 53 56 57 55 52 52 53 54 55 55 55 56 56 57 58 59 59 57 56 56 55 55 54 53 52 52 52 51 50
42 41 40 39 38 37 36 35 35 35 36 36 37 37 37 37 37 37 38 38 38 37 38 38 38 38 38 38 39 40 42 44 46 48 50 53 56 58 56 53 53 55 56 56 56 55 56 56 56 57 58 57 57 57 57 56 55 54 53 53 52 52 52
42 43 43 42 41 40 39 37 37 36 37 37 38 38 38 38 38 38 39 40 40 40 40 40 40 40 40 40 40 41 42 44 45 47 49 50 53 56 57 56 54 55 57 58 57 57 57 57 57 56 56 56 57 58 58 58 58 57 56 55 53 52 52
44 44 44 44 44 44 43 41 40 39 38 39 39 39 40 40 40 40 40 41 42 42 42 42 42 43 43 43 43 43 44 44 45 46 48 49 50 52 54 55 55 55 57 59 59 59 59 59 59 58 57 57 58 59 59 60 60 60 59 58 56 55 53
47 47 47 46 46 46 46 45 44 43 42 41 41 41 41 42 42 42 42 43 43 44 44 45 45 45 45 45 45 45 46 46 47 47 48 49 50 51 52 53 53 53 56 58 59 60 60 60 60 60 59 60 60 60 61 62 62 62 61 60 59 57 56
50 50 49 49 48 48 47 47 47 47 46 45 45 44 44 44 44 44 45 45 45 45 46 47 47 47 47 48 48 48 48 48 48 49 50 50 51 51 52 52 53 52 53 56 59 61 61 62 62 62 61 61 62 62 62 63 65 65 64 63 62 61 60
53 52 52 52 51 50 49 49 49 49 49 49 49 48 48 47 47 47 47 47 47 47 48 48 49 49 49 50 50 50 50 50 50 51 51 52 53 53 54 54 54 54 54 55 58 61 63 63 64 65 65 64 64 64 64 65 67 68 67 66 66 65 64
55 55 55 55 54 53 52 52 51 51 52 52 52 52 52 51 51 50 50 50 50 50 50 50 50 51 51 52 52 52 53 53 53 53 53 54 54 55 56 56 56 57 57 56 58 61 63 64 65 65 66 67 67 67 67 67 69 70 69 68 69 69 68
58 57 57 57 56 56 55 55 54 54 54 54 54 55 55 55 55 54 54 53 53 52 52 52 52 53 53 53 54 54 54 55 55 55 55 55 56 56 57 58 59 59 60 60 59 60 62 64 66 66 66 66 67 68 69 69 70 73 72 71 71 71 71
61 60 60 59 58 58 57 57 57 57 57 57 57 57 57 57 57 57 57 57 56 56 55 55 55 55 55 55 55 55 56 56 56 56 57 57 58 58 59 59 60 61 62 63 63 62 62 63 65 66 67 67 67 67 68 69 70 72 73 73 72 73 73
65 64 63 62 61 60 59 59 59 59 59 59 59 60 60 60 60 60 60 60 60 59 59 59 58 58 58 58 57 58 58 58 58 58 58 59 59 60 60 61 61 62 63 64 65 65 65 65 65 66 67 68 68 68 68 68 69 70 71 73 74 74 74
69 68 67 67 65 63 62 61 60 61 61 61 61 62 63 63 64 63 63 63 63 62 62 62 62 61 61 61 60 60 60 60 60 60 60 60 60 61 61 62 63 63 64 65 66 66 67 68 68 68 68 69 69 69 69 69 69 69 70 72 73 73 74
70 71 70 70 69 68 66 65 64 63 63 63 63 64 65 66 66 66 66 65 66 66 65 65 65 65 65 64 64 64 63 63 63 63 62 62 62 62 62 63 63 64 65 66 66 67 68 69 69 70 70 71 71 71 71 71 71 71 71 72 73 74 73
68 70 71 71 71 71 70 69 68 67 66 65 66 67 69 69 69 68 68 68 68 68 68 68 68 68 68 68 68 67 67 67 67 66 66 65 65 65 64 65 65 66 66 67 67 68 68 69 70 71 71 71 71 72 72 73 73 73 73 73 74 75 75
66 68 70 70 70 71 72 72 71 70 68 68 71 73 73 73 72 71 71 70 70 71 71 70 71 71 71 71 71 71 71 71 70 70 69 69 68 68 68 68 68 68 68 69 69 69 69 69 70 71 72 72 72 72 73 73 74 74 75 75 76 77 77
66 67 68 69 69 70 71 71 71 70 70 72 76 77 76 76 76 76 75 74 73 74 74 73 74 74 74 74 74 74 74 74 74 73 73 72 72 72 72 71 71 71 71 72 72 71 71 71 71 71 72 72 72 72 73 73 74 75 76 77 78 79 79
68 68 68 69 69 69 70 69 69 70 70 72 74 75 76 79 80 80 80 78 77 77 77 76 76 76 77 77 76 77 76 76 76 76 76 76 76 76 76 75 75 75 75 75 75 74 74 73 73 74 73 73 72 72 73 73 74 75 76 76 78 80 81
70 70 69 69 70 70 70 69 69 70 71 71 72 73 76 81 83 83 83 82 82 82 81 79 78 78 79 78 79 79 79 79 78 78 78 78 78 78 78 78 79 79 79 79 78 78 77 77 76 76 76 75 74 74 74 75 75 76 76 77 78 79 80
72 71 71 71 71 71 71 70 69 70 71 72 73 74 77 79 81 82 83 83 84 84 84 83 82 82 81 81 81 81 81 81 81 81 81 81 81 81 81 81 81 81 82 82 81 81 81 80 79 79 79 78 78 78 78 78 78 78 78 78 79 80 81
72 72 72 72 72 72 72 71 71 71 72 73 74 75 76 78 80 81 82 83 84 85 85 85 86 86 86 85 84 83 83 83 83 83 83 83 83 83 84 84 84 84 84 84 84 83 83 83 82 82 81 81 81 82 82 82 82 82 82 82 82 83 83
73 73 73 73 73 72 72 73 73 73 73 73 73 75 76 78 80 82 83 84 85 85 85 85 87 88 88 88 88 87 86 86 85 85 85 85 85 85 86 86 86 86 86 85 85 85 85 85 85 84 84 84 84 85 85 85 85 86 86 86 86 86 87
74 74 75 75 74 73 73 73 74 75 76 75 74 75 76 77 79 82 84 85 86 86 87 87 87 88 88 88 89 90 90 90 89 88 88 87 87 87 88 88 88 88 88 87 87 87 87 86 86 86 86 86 86 87 88 88 88 88 89 90 90 90 91
75 75 76 76 76 75 74 74 75 76 76 77 77 77 77 78 79 80 82 84 85 86 88 88 88 87 87 87 88 90 91 91 91 91 91 91 91 90 90 90 89 89 89 89 89 88 88 88 88 88 88 88 88 89 89 90 91 91 91 92 92 93 93
75 76 76 77 76 76 75 75 75 76 76 76 77 78 79 79 79 79 80 82 83 85 87 87 87 87 86 86 88 89 90 91 91 92 93 94 94 93 93 93 92 92 91 91 91 91 90 89 89 89 89 89 89 90 91 92 93 93 94 94 94 94 94
76 76 76 76 76 75 75 74 74 75 75 76 76 77 79 79 79 77 78 79 82 84 85 84 83 84 85 86 88 90 89 89 90 91 92 94 94 95 95 95 94 94 93 94 94 94 93 93 92 92 92 91 91 92 93 94 96 96 97 96 96 96 96
76 76 76 76 75 75 74 74 74 74 75 76 76 76 77 78 77 76 76 78 80 82 83 83 81 81 83 85 88 89 88 87 87 88 89 91 92 94 95 95 95 94 94 94 95 96 96 96 95 95 95 94 94 95 97 99 100 100 100 100 100 100 100
74 74 74 75 75 74 74 74 73 72 73 74 75 76 77 76 75 75 75 76 77 79 81 81 80 79 80 83 85 86 85 85 85 86 87 88 89 90 92 93 94 94 94 94 95 95 96 96 96 96 96 96 96 98 100 102 102 103 103 104 104 105 105
73 72 73 73 73 73 73 73 72 71 71 73 75 76 75 74 73 73 73 74 75 77 78 79 79 78 78 80 82 84 83 82 82 83 84 85 86 87 89 90 91 92 92 93 93 94 94 95 95 95 96 96 96 98 100 101 102 103 105 106 107 109 110
71 71 71 71 71 71 72 72 72 70 70 71 73 73 73 72 72 71 72 73 74 75 76 76 76 76 77 78 80 82 82 80 78 78 79 80 80 81 83 84 84 85 86 87 88 88 89 90 91 93 93 94 95 96 98 99 100 102 104 105 107 109 110
69 69 69 69 69 69 69 70 70 69 68 68 69 70 71 72 71 70 70 71 72 72 73 73 74 74 76 77 78 79 80 79 77 75 74 74 74 75 76 76 76 76 78 79 80 80 81 82 84 86 88 89 91 93 95 96 98 99 101 101 102 103 105
65 65 66 65 65 66 66 67 67 65 65 65 66 68 70 70 69 68 69 70 70 71 71 72 72 73 74 76 77 77 77 77 75 72 69 67 67 66 67 67 68 70 73 75 76 76 77 78 78 79 80 82 84 87 91 93 94 95 96 96 97 97 99
62 62 62 62 62 62 62 63 63 62 62 63 64 65 67 68 68 68 69 69 69 70 70 71 72 73 73 74 74 75 75 75 73 70 66 63 61 59 58 58 59 62 66 70 72 73 74 73 73 72 73 76 79 82 85 86 87 89 89 90 90 90 90
Wind_Direction
257 256 254 253 251 249 249 248 248 247 245 243 241 240 242 243 243 243 243 242 239 237 235 233 233 232 232 232 232 232 232 231 230 231 234 236 235 234 234 235 235 235 235 235 234 233 233 235 238 241 244 246 246 241 237 237 239 241 246 247 239 233 235
257 257 257 256 255 253 251 249 248 247 247 246 244 242 242 244 244 244 243 243 242 240 238 237 235 234 233 232 232 233 234 235 235 234 234 235 236 236 237 237 237 237 237 238 237 236 235 236 238 241 244 247 249 246 241 239 240 241 243 245 241 237 236
255 256 256 257 256 255 253 251 248 248 248 248 247 245 244 244 245 245 245 245 244 242 241 240 238 237 234 233 233 233 234 235 235 236 236 235 235 236 237 238 239 239 239 240 240 241 240 239 240 242 243 246 247 247 246 243 241 242 243 243 242 241 239
255 255 255 256 256 256 255 253 251 249 249 249 248 248 246 245 245 246 246 246 246 244 243 241 240 240 238 236 234 233 233 234 235 236 236 235 234 235 237 238 239 240 241 241 242 243 244 243 243 243 243 244 246 247 249 248 246 245 244 244 243 243 243
254 255 255 256 256 256 256 256 254 252 251 251 251 250 249 247 245 245 245 246 247 246 245 243 242 241 241 239 237 235 234 234 235 236 236 235 234 233 235 237 239 240 241 242 242 243 244 245 245 245 245 244 245 247 249 251 251 249 247 245 245 246 246
251 253 254 255 255 256 256 256 256 255 254 254 254 253 252 249 246 245 244 244 245 246 246 246 244 242 242 241 240 238 236 235 235 235 236 236 235 234 233 235 237 238 239 240 241 242 243 244 245 246 245 244 244 245 248 250 251 252 251 249 247 247 248
250 251 252 253 254 254 254 255 255 256 255 255 256 256 255 253 250 246 244 244 244 245 246 246 246 245 243 242 242 241 239 237 236 235 236 236 236 236 235 234 234 235 237 237 238 239 240 241 242 244 245 245 244 245 246 248 250 251 252 253 252 250 250
251 251 251 252 253 253 253 253 254 254 255 255 255 256 256 255 254 250 247 244 243 243 244 245 246 246 245 244 243 242 241 240 238 236 236 236 236 237 237 236 234 232 234 236 237 237 237 238 240 242 243 245 245 246 246 247 248 249 250 252 254 254 254
252 251 251 250 250 251 251 251 251 252 253 254 254 254 254 255 255 254 251 248 245 243 242 243 245 246 246 246 244 243 243 242 241 239 238 237 236 237 237 238 237 233 233 235 237 237 237 238 240 241 243 244 245 246 247 248 249 250 250 251 252 254 256
253 252 251 250 250 250 249 249 249 249 250 251 251 252 252 253 253 254 253 252 249 246 243 242 243 244 245 246 246 245 244 243 243 243 241 240 239 238 238 238 239 237 234 234 236 238 239 239 241 242 243 245 245 246 247 248 248 249 250 251 252 253 255
254 253 253 252 252 251 250 250 249 249 249 249 249 250 250 250 251 252 253 253 251 249 247 244 243 243 243 244 245 245 245 244 243 243 243 243 242 241 240 239 239 238 236 234 233 235 237 239 241 242 243 245 246 247 247 248 248 248 249 249 250 251 252
255 254 254 253 253 252 252 251 251 250 250 250 249 249 249 249 249 250 251 251 252 251 250 248 245 244 243 243 243 244 245 245 244 243 243 243 243 243 242 242 241 240 239 237 234 233 234 235 237 239 242 243 245 247 248 248 249 250 249 249 250 250 250
255 254 254 253 253 252 251 251 251 250 251 251 250 250 249 249 248 249 250 250 251 251 251 250 249 247 245 244 243 243 244 245 245 245 244 243 243 244 244 244 243 243 242 240 238 236 236 236 236 236 238 240 242 245 247 249 251 251 250 250 251 251 251
256 255 254 253 252 252 251 251 250 250 250 251 251 251 250 249 249 248 249 249 250 250 250 251 251 250 248 247 246 245 244 244 244 245 245 245 244 244 244 244 244 244 244 244 242 240 240 240 240 239 238 238 239 241 244 246 249 251 251 250 251 252 251
258 257 256 255 254 253 251 251 250 250 250 250 251 252 252 251 250 249 248 248 249 249 250 250 250 251 251 250 249 248 247 246 245 245 245 245 245 245 245 244 244 245 245 245 245 244 243 243 243 243 243 242 242 242 242 244 246 249 251 251 251 252 252
258 258 257 256 255 254 253 252 251 251 250 250 250 250 251 251 251 250 250 249 248 248 248 249 250 250 250 251 251 250 250 249 248 247 246 246 246 246 246 246 246 245 246 246 246 246 246 245 245 245 246 246 246 246 246 246 247 249 251 252 252 252 252
258 257 256 256 255 254 253 253 252 252 252 252 251 251 251 251 251 250 250 249 249 248 248 248 248 249 249 250 250 251 251 251 250 250 249 248 247 247 247 246 246 246 247 247 247 247 247 247 246 246 246 247 248 249 249 249 250 251 253 254 254 253 253
259 258 256 256 256 255 253 252 251 251 252 252 253 253 253 252 251 250 250 250 250 250 249 248 248 248 249 249 249 250 250 251 251 251 250 250 250 249 249 249 248 248 248 247 247 247 248 248 248 247 247 247 247 248 249 250 251 252 253 255 256 256 255
258 258 257 256 256 256 255 253 252 251 251 251 252 253 253 252 252 251 251 250 250 250 250 249 249 249 249 249 249 249 249 249 250 250 250 250 250 251 251 251 251 250 250 249 249 248 248 248 249 249 249 248 248 248 248 249 251 252 254 255 257 258 258
258 258 258 257 256 255 255 254 253 252 252 252 251 251 250 251 251 251 250 250 250 250 250 249 249 249 249 249 249 249 248 248 249 249 249 249 250 250 250 251 251 251 251 251 251 250 250 250 249 250 250 250 249 249 249 249 249 250 252 254 256 258 258
259 258 258 257 256 255 255 254 254 253 252 251 251 251 251 251 251 251 250 249 249 248 248 248 248 248 248 248 248 248 248 248 249 249 249 249 249 249 249 249 250 250 251 251 252 252 252 252 251 251 251 251 251 251 251 250 250 250 251 252 254 255 257
261 260 259 259 258 257 256 255 254 253 252 251 251 252 253 253 251 250 250 250 249 249 248 248 248 248 248 248 248 248 248 248 249 249 249 249 249 249 249 249 249 250 250 250 250 251 251 252 252 252 253 253 253 253 253 252 252 252 252 252 253 254 255
263 262 261 260 260 258 257 256 254 253 253 252 252 252 252 252 252 251 251 250 250 250 250 249 249 249 249 249 249 249 248 248 248 248 249 249 249 249 249 249 250 250 250 250 250 250 250 251 251 252 253 253 253 254 254 254 254 254 253 253 253 254 255
263 263 262 262 261 260 259 257 256 255 254 253 252 252 253 254 255 255 254 252 251 251 251 250 250 250 250 250 250 250 250 250 249 249 249 249 249 249 249 249 250 250 250 251 251 251 251 251 251 252 252 253 253 253 254 254 254 254 254 254 254 254 255
263 263 263 262 262 262 262 260 258 256 255 254 253 252 252 253 255 255 255 255 254 253 252 251 251 250 250 250 250 250 251 251 251 251 251 250 250 250 250 250 250 250 250 251 251 252 252 252 253 253 253 253 253 253 253 254 254 254 254 254 254 254 255
262 262 262 262 262 262 263 263 262 260 258 256 255 254 253 252 253 253 254 254 254 254 253 252 252 251 251 251 251 251 251 251 251 252 252 252 252 252 252 252 251 251 251 251 252 252 253 253 253 254 254 254 254 254 254 254 254 254 254 254 254 254 254
260 260 261 261 261 261 261 261 262 263 262 261 259 258 257 255 254 254 254 254 254 254 254 253 253 253 252 252 252 251 251 251 251 252 252 252 253 253 253 253 253 254 254 253 253 253 254 254 254 254 254 254 254 255 255 255 254 254 254 254 253 253 254
258 258 259 259 260 260 260 260 260 260 262 262 262 261 260 259 257 256 256 256 255 255 255 255 254 254 254 254 253 253 252 252 252 252 252 252 252 253 253 254 254 255 255 256 256 255 255 255 256 256 256 256 256 256 256 256 256 255 255 254 254 253 253
257 257 257 258 259 259 259 260 260 260 260 260 261 262 261 261 259 259 258 258 257 256 256 255 256 256 255 255 255 254 254 253 253 253 253 253 253 253 254 254 254 255 256 256 257 257 257 257 257 257 258 258 258 258 258 258 258 257 257 256 255 255 254
257 257 257 257 258 259 259 259 260 261 261 260 260 260 261 261 261 260 259 258 258 257 257 256 256 256 256 256 256 255 255 255 255 254 254 254 254 254 254 255 255 255 256 256 257 257 258 257 257 258 258 259 259 259 260 260 259 259 259 258 258 257 256
258 258 258 258 258 259 259 259 259 260 261 262 262 261 261 261 261 260 259 257 257 257 258 257 256 255 255 255 255 255 255 255 256 256 256 256 256 256 256 256 256 256 257 257 258 258 258 258 258 258 258 259 259 260 260 260 260 260 260 260 259 259 258
258 258 258 258 258 259 259 259 259 259 260 262 262 262 261 260 260 259 258 257 257 257 257 258 257 256 256 256 257 257 256 256 256 256 256 257 257 257 257 258 258 259 259 259 259 259 260 260 260 260 260 260 260 260 260 260 260 261 261 261 260 260 259
257 257 257 257 257 258 258 258 258 258 258 259 260 260 261 261 260 259 258 257 257 256 257 258 259 259 258 259 259 260 259 258 257 257 257 257 258 258 259 259 260 260 261 261 261 261 262 262 262 262 261 261 261 261 261 261 261 262 262 262 261 261 260
257 256 256 256 256 256 256 257 257 257 256 257 258 259 260 260 259 258 258 257 257 257 257 258 259 259 260 260 260 261 262 262 261 260 260 260 260 260 261 261 261 262 263 263 263 263 263 264 263 263 263 263 262 262 262 262 262 261 261 261 261 261 261
256 256 255 255 255 255 255 255 255 255 254 255 255 257 258 258 258 258 258 258 258 258 258 258 258 259 259 260 261 262 263 264 264 264 263 263 263 263 264 264 264 265 265 265 264 263 262 262 262 262 263 263 263 263 262 262 261 260 260 260 261 262 262
256 255 255 254 254 254 254 254 254 254 254 253 253 254 256 257 258 258 258 258 258 259 259 259 259 259 259 260 262 263 264 266 267 268 268 268 267 266 266 265 265 265 265 264 264 263 262 261 261 261 261 262 261 261 261 260 260 260 261 261 262 263 264
256 255 255 254 253 253 253 253 253 253 253 253 252 253 254 256 257 258 258 258 259 259 259 259 259 260 260 261 263 264 266 268 269 271 272 272 271 270 269 267 264 263 263 263 264 263 263 262 262 261 260 260 259 259 259 260 261 262 262 263 264 265 266
Height
10601 10602 10604 10605 10606 10607 10609 10611 10612 10614 10615 10617 10619 10620 10621 10622 10623 10625 10626 10628 10629 10631 10632 10633 10635 10636 10638 10640 10642 10644 10646 10648 10651 10653 10655 10656 10658 10660 10661 10663 10666 10668 10670 10671 10673 10675 10676 10678 10679 10681 10682 10683 10685 10688 10690 10692 10693 10694 10695 10697 10698 10699 10700
10597 10598 10599 10601 10602 10603 10605 10607 10609 10610 10611 10613 10614 10616 10617 10618 10620 10621 10622 10624 10625 10627 10628 10629 10630 10632 10633 10635 10637 10639 10641 10643 10645 10648 10650 10652 10654 10655 10657 10659 10662 10664 10666 10667 10669 10670 10672 10673 10675 10677 10678 10679 10681 10683 10685 10687 10689 10690 10691 10692 10694 10695 10696
10593 10594 10595 10596 10598 10599 10601 10603 10604 10606 10607 10608 10610 10612 10613 10615 10616 10617 10618 10620 10621 10622 10624 10625 10626 10627 10629 10630 10632 10634 10636 10638 10640 10642 10645 10647 10649 10650 10653 10655 10657 10659 10661 10663 10664 10666 10667 10669 10671 10673 10674 10675 10676 10677 10679 10682 10683 10685 10686 10688 10689 10690 10692
10589 10590 10591 10592 10594 10595 10597 10598 10600 10601 10602 10604 10605 10607 10609 10610 10612 10613 10614 10616 10617 10618 10619 10621 10622 10623 10624 10626 10627 10629 10631 10633 10635 10637 10639 10642 10644 10645 10647 10650 10652 10654 10656 10657 10659 10661 10663 10664 10666 10668 10670 10671 10672 10673 10674 10676 10678 10680 10682 10683 10684 10686 10687
10584 10586 10587 10588 10589 10591 10593 10594 10595 10596 10597 10599 10600 10602 10604 10605 10607 10608 10610 10611 10612 10614 10615 10616 10617 10618 10620 10621 10623 10624 10626 10628 10629 10631 10633 10635 10638 10640 10641 10643 10646 10648 10650 10651 10653 10655 10657 10659 10661 10663 10665 10667 10668 10668 10670 10671 10672 10674 10676 10678 10680 10681 10682
10580 10581 10582 10584 10585 10587 10588 10589 10590 10591 10592 10593 10595 10597 10599 10600 10602 10603 10604 10606 10607 10609 10610 10611 10613 10614 10615 10616 10617 10619 10620 10622 10624 10626 10627 10629 10632 10634 10636 10638 10640 10642 10644 10646 10648 10650 10652 10654 10655 10657 10659 10662 10663 10664 10666 10667 10667 10668 10670 10673 10675 10676 10678
10576 10577 10578 10579 10580 10582 10583 10585 10586 10586 10587 10588 10589 10591 10592 10594 10596 10598 10599 10600 10602 10603 10604 10606 10607 10608 10609 10610 10612 10613 10614 10616 10618 10620 10621 10623 10625 10627 10630 10632 10634 10636 10638 10640 10642 10644 10646 10648 10650 10651 10653 10656 10657 10658 10660 10661 10662 10662 10664 10666 10668 10670 10673
10571 10572 10573 10574 10575 10577 10578 10579 10581 10581 10582 10583 10584 10585 10586 10588 10590 10591 10593 10594 10596 10597 10598 10599 10601 10602 10603 10604 10605 10607 10608 10610 10611 10613 10615 10617 10619 10621 10623 10626 10628 10630 10632 10633 10635 10638 10640 10642 10644 10645 10647 10649 10651 10652 10654 10655 10656 10657 10658 10660 10662 10665 10667
10565 10566 10567 10568 10569 10570 10572 10573 10575 10576 10576 10577 10578 10579 10580 10581 10582 10584 10586 10587 10589 10590 10591 10593 10594 10595 10596 10597 10599 10600 10602 10603 10605 10607 10609 10611 10612 10614 10616 10619 10621 10624 10626 10627 10629 10631 10634 10636 10638 10640 10641 10643 10645 10647 10648 10649 10650 10651 10652 10654 10656 10659 10661
10558 10559 10560 10562 10563 10564 10566 10567 10568 10569 10570 10571 10572 10573 10573 10574 10575 10577 10578 10580 10581 10583 10585 10586 10586 10587 10589 10591 10592 10594 10595 10597 10599 10600 10602 10604 10606 10608 10610 10612 10614 10617 10619 10622 10623 10625 10627 10630 10632 10633 10635 10637 10638 10640 10642 10642 10642 10644 10646 10648 10650 10653 10655
10550 10552 10554 10555 10557 10559 10560 10561 10563 10563 10564 10565 10566 10566 10567 10568 10569 10570 10571 10572 10574 10576 10577 10579 10580 10581 10582 10584 10585 10586 10588 10590 10592 10594 10596 10597 10599 10601 10603 10605 10607 10609 10612 10615 10617 10618 10620 10622 10625 10627 10628 10630 10631 10632 10634 10635 10634 10636 10639 10641 10643 10646 10648
10542 10544 10546 10548 10550 10552 10554 10555 10557 10557 10558 10559 10559 10560 10561 10562 10563 10564 10565 10565 10567 10568 10570 10571 10573 10574 10576 10577 10578 10579 10581 10583 10585 10587 10589 10590 10592 10594 10596 10598 10600 10602 10605 10607 10609 10611 10613 10615 10617 10619 10621 10623 10624 10625 10626 10628 10626 10627 10632 10634 10635 10638 10640
10533 10535 10537 10539 10541 10544 10546 10547 10549 10550 10551 10551 10552 10553 10554 10555 10557 10558 10559 10559 10560 10561 10563 10564 10566 10567 10569 10570 10571 10573 10574 10576 10578 10579 10582 10583 10585 10587 10589 10591 10593 10595 10597 10599 10601 10603 10605 10607 10608 10611 10613 10615 10617 10618 10619 10621 10619 10618 10623 10627 10627 10629 10632
10523 10526 10527 10530 10532 10535 10537 10539 10541 10542 10543 10544 10544 10545 10546 10548 10549 10551 10552 10553 10554 10555 10557 10558 10559 10560 10561 10563 10564 10566 10568 10569 10571 10572 10575 10576 10578 10580 10582 10584 10585 10587 10589 10591 10593 10595 10597 10599 10601 10603 10605 10607 10610 10611 10612 10614 10612 10610 10613 10618 10620 10621 10624
10514 10517 10518 10521 10523 10525 10528 10530 10532 10534 10535 10536 10537 10537 10538 10540 10542 10543 10544 10546 10547 10549 10550 10552 10553 10554 10554 10556 10557 10559 10561 10562 10564 10566 10568 10569 10571 10572 10574 10576 10578 10579 10581 10583 10585 10587 10589 10591 10593 10595 10597 10600 10602 10604 10606 10607 10607 10604 10603 10608 10612 10613 10616
10504 10507 10509 10511 10513 10516 10519 10521 10523 10525 10526 10527 10529 10529 10530 10531 10533 10535 10536 10538 10539 10541 10543 10544 10545 10547 10548 10549 10550 10552 10553 10555 10557 10559 10561 10562 10564 10565 10566 10568 10570 10571 10573 10575 10577 10579 10581 10583 10585 10587 10589 10592 10594 10597 10599 10600 10600 10599 10596 10597 10602 10605 10607
10492 10496 10498 10500 10503 10506 10510 10512 10514 10516 10517 10518 10519 10520 10521 10521 10523 10525 10527 10529 10530 10532 10534 10536 10538 10539 10540 10542 10543 10545 10546 10548 10549 10551 10553 10554 10556 10558 10559 10561 10562 10564 10566 10567 10569 10571 10573 10575 10577 10579 10581 10584 10586 10588 10591 10593 10593 10593 10592 10590 10592 10596 10599
10480 10483 10487 10490 10492 10495 10499 10502 10504 10506 10508 10509 10510 10510 10510 10510 10512 10515 10518 10520 10522 10523 10526 10528 10529 10531 10532 10534 10535 10537 10538 10540 10541 10542 10544 10546 10548 10550 10552 10553 10555 10557 10558 10560 10562 10563 10565 10567 10568 10571 10573 10575 10578 10580 10583 10585 10586 10586 10586 10584 10583 10586 10590
10470 10471 10475 10479 10481 10484 10487 10490 10493 10496 10499 10501 10501 10500 10498 10499 10501 10504 10507 10510 10512 10513 10516 10518 10520 10521 10522 10525 10526 10528 10529 10530 10532 10534 10535 10537 10539 10541 10543 10545 10546 10548 10549 10551 10553 10555 10557 10558 10560 10562 10564 10566 10569 10572 10574 10576 10578 10579 10579 10577 10575 10576 10579
10461 10461 10463 10467 10470 10472 10475 10477 10481 10486 10490 10492 10488 10485 10486 10488 10489 10492 10495 10498 10500 10501 10504 10506 10508 10509 10511 10514 10516 10517 10518 10520 10522 10524 10526 10528 10530 10532 10534 10535 10537 10538 10540 10541 10543 10545 10547 10550 10551 10552 10554 10557 10560 10563 10565 10567 10569 10571 10571 10570 10569 10568 10570
10450 10451 10452 10455 10458 10460 10462 10466 10471 10475 10478 10477 10473 10473 10477 10479 10479 10480 10482 10484 10487 10488 10490 10493 10495 10497 10499 10501 10503 10505 10507 10510 10512 10514 10516 10518 10520 10521 10523 10525 10526 10528 10529 10531 10532 10535 10537 10540 10542 10543 10545 10548 10551 10553 10556 10558 10560 10561 10563 10563 10562 10560 10561
10438 10440 10442 10444 10446 10448 10451 10455 10460 10462 10463 10463 10463 10466 10468 10465 10464 10466 10469 10472 10475 10475 10477 10481 10483 10485 10487 10489 10491 10494 10496 10499 10501 10504 10506 10508 10509 10511 10513 10514 10516 10517 10519 10520 10522 10524 10527 10529 10531 10533 10535 10538 10542 10544 10545 10547 10549 10550 10552 10554 10554 10552 10552
10427 10429 10431 10433 10434 10436 10439 10443 10447 10449 10451 10453 10455 10456 10454 10450 10450 10454 10457 10461 10463 10463 10466 10470 10472 10474 10476 10478 10480 10482 10485 10487 10490 10492 10494 10496 10498 10500 10502 10504 10505 10506 10508 10509 10511 10513 10515 10518 10521 10523 10525 10528 10531 10534 10535 10536 10538 10539 10541 10543 10543 10543 10543
10416 10418 10420 10421 10422 10424 10427 10432 10436 10438 10439 10441 10443 10443 10443 10441 10442 10444 10447 10449 10451 10453 10456 10459 10461 10463 10465 10467 10469 10470 10473 10475 10478 10480 10482 10484 10486 10488 10491 10493 10494 10495 10497 10499 10501 10503 10505 10507 10510 10513 10515 10517 10520 10522 10524 10525 10526 10528 10530 10531 10532 10532 10533
10406 10407 10408 10409 10411 10413 10416 10419 10422 10425 10426 10428 10430 10432 10432 10432 10432 10433 10435 10436 10437 10441 10444 10447 10448 10450 10452 10455 10457 10459 10461 10463 10466 10468 10470 10473 10475 10476 10478 10480 10481 10483 10485 10487 10490 10492 10494 10496 10499 10501 10504 10506 10507 10509 10511 10512 10514 10515 10517 10519 10520 10520 10521
10395 10396 10396 10398 10400 10402 10405 10406 10408 10411 10413 10415 10418 10420 10420 10421 10422 10422 10422 10423 10425 10428 10431 10433 10435 10437 10440 10443 10445 10447 10450 10451 10454 10456 10459 10461 10463 10464 10466 10467 10469 10471 10473 10476 10478 10480 10482 10485 10487 10489 10491 10493 10495 10496 10497 10499 10501 10502 10503 10504 10506 10507 10507
10385 10386 10386 10387 10389 10392 10394 10396 10397 10398 10399 10403 10406 10408 10409 10410 10411 10411 10411 10412 10414 10416 10418 10419 10422 10424 10428 10431 10433 10434 10436 10439 10442 10444 10446 10448 10450 10452 10453 10455 10457 10459 10461 10464 10466 10468 10471 10473 10474 10476 10478 10480 10481 10482 10482 10484 10486 10487 10488 10489 10491 10493 10493
10375 10376 10376 10377 10379 10381 10384 10386 10387 10387 10389 10391 10393 10394 10396 10397 10398 10399 10400 10401 10403 10404 10406 10408 10411 10413 10417 10419 10420 10421 10424 10427 10430 10431 10433 10435 10437 10439 10441 10443 10446 10448 10449 10452 10453 10456 10459 10461 10463 10464 10465 10466 10468 10468 10469 10470 10470 10472 10473 10474 10476 10478 10479
10365 10365 10366 10367 10369 10371 10374 10375 10375 10377 10379 10380 10381 10381 10382 10383 10385 10388 10389 10390 10391 10392 10394 10397 10400 10403 10406 10407 10407 10408 10411 10414 10416 10418 10419 10421 10424 10427 10428 10431 10434 10436 10438 10439 10440 10443 10446 10448 10451 10452 10453 10454 10455 10455 10456 10455 10455 10456 10457 10459 10461 10463 10465
10354 10355 10356 10358 10359 10361 10363 10364 10365 10366 10367 10369 10370 10370 10370 10371 10373 10376 10378 10379 10378 10378 10380 10384 10389 10391 10393 10393 10393 10394 10397 10400 10403 10404 10406 10408 10411 10414 10416 10418 10421 10424 10426 10427 10428 10429 10431 10434 10437 10438 10440 10441 10442 10442 10442 10440 10438 10439 10440 10443 10446 10447 10449
10343 10344 10346 10347 10349 10351 10352 10354 10355 10356 10356 10357 10359 10360 10359 10360 10362 10364 10365 10365 10365 10365 10367 10371 10375 10378 10379 10379 10378 10380 10385 10389 10391 10392 10394 10397 10399 10401 10403 10405 10407 10410 10413 10414 10414 10416 10417 10419 10422 10424 10426 10428 10429 10428 10425 10422 10422 10424 10426 10428 10429 10431 10432
10331 10333 10335 10336 10338 10340 10341 10342 10345 10347 10347 10347 10347 10347 10347 10349 10351 10352 10352 10353 10354 10355 10356 10358 10361 10365 10367 10367 10367 10369 10374 10378 10380 10381 10384 10386 10388 10389 10391 10392 10394 10397 10399 10400 10401 10402 10403 10405 10407 10410 10412 10414 10414 10412 10408 10407 10409 10410 10411 10411 10412 10413 10414
10320 10322 10324 10325 10327 10329 10330 10331 10333 10336 10337 10336 10335 10334 10336 10338 10340 10340 10341 10342 10343 10344 10345 10347 10350 10353 10356 10357 10357 10358 10361 10365 10368 10371 10373 10375 10376 10378 10379 10381 10382 10383 10385 10387 10388 10389 10390 10391 10393 10395 10396 10397 10398 10395 10393 10393 10396 10396 10395 10395 10394 10393 10393
10307 10310 10312 10314 10316 10318 10319 10320 10322 10324 10326 10325 10324 10325 10326 10327 10328 10329 10331 10331 10332 10334 10336 10338 10340 10342 10344 10345 10346 10346 10348 10351 10355 10358 10361 10363 10365 10366 10367 10368 10370 10371 10372 10374 10375 10376 10377 10378 10378 10379 10380 10380 10380 10379 10378 10380 10380 10379 10378 10378 10377 10376 10377
10295 10298 10301 10303 10305 10307 10308 10309 10310 10313 10315 10315 10315 10315 10315 10316 10318 10320 10322 10322 10323 10325 10326 10328 10331 10332 10333 10334 10334 10335 10337 10338 10341 10345 10348 10351 10352 10354 10355 10356 10357 10358 10359 10360 10361 10361 10362 10362 10362 10363 10364 10364 10364 10364 10363 10363 10363 10362 10362 10363 10363 10364 10365
10285 10287 10289 10292 10294 10296 10297 10298 10300 10303 10304 10305 10305 10306 10306 10307 10310 10311 10312 10313 10314 10315 10316 10318 10321 10322 10323 10324 10324 10325 10326 10327 10329 10332 10335 10338 10339 10341 10342 10343 10344 10345 10345 10345 10346 10346 10347 10348 10348 10350 10350 10349 10349 10348 10346 10347 10347 10348 10350 10352 10353 10353 10352
10274 10276 10279 10282 10284 10286 10287 10289 10291 10293 10294 10294 10295 10296 10298 10299 10300 10301 10302 10303 10305 10306 10307 10309 10310 10311 10313 10314 10315 10316 10317 10317 10319 10321 10323 10325 10326 10328 10329 10331 10332 10332 10332 10332 10333 10333 10334 10335 10336 10337 10336 10334 10333 10332 10332 10334 10335 10336 10339 10340 10340 10341 10340